• In Belgium
  • List of Countries
  • For 7 days
  • Water Temperature
  • Satellite Maps
  • Weather Map
  • Weather Widgets
  • user-avatar
    Login

    Hourly Weather Kula

    Today, 16 October, Tuesday

    Time Temperature Precipitation Wind Pressure Humidity
    00:00 +16°C° 0 mm 1 mps 705 mmHg 75%
    01:00 +16°C° 0 mm 1 mps 705 mmHg 78%
    02:00 +15°C° 0 mm 1 mps 705 mmHg 80%
    03:00 +15°C° 0 mm 1 mps 705 mmHg 82%
    04:00 +14°C° 0 mm 1 mps 705 mmHg 83%
    05:00 +14°C° 0 mm 1 mps 705 mmHg 84%
    06:00 +15°C° 0 mm 1 mps 705 mmHg 79%
    07:00 +16°C° 0 mm 1 mps 706 mmHg 74%
    08:00 +18°C° 0 mm 1 mps 706 mmHg 69%
    09:00 +20°C° 0 mm 1 mps 706 mmHg 61%
    10:00 +22°C° 0 mm 1 mps 706 mmHg 53%
    11:00 +24°C° 0 mm 1 mps 706 mmHg 44%
    12:00 +25°C° 0 mm 1 mps 706 mmHg 41%
    13:00 +26°C° 0 mm 2 mps 706 mmHg 38%
    14:00 +27°C° 0 mm 2 mps 706 mmHg 35%
    15:00 +26°C° 0 mm 2 mps 706 mmHg 39%
    16:00 +25°C° 0 mm 3 mps 705 mmHg 42%
    17:00 +24°C° 0 mm 3 mps 705 mmHg 46%
    18:00 +21°C° 0 mm 3 mps 705 mmHg 54%
    19:00 +20°C° 0 mm 3 mps 705 mmHg 61%
    20:00 +18°C° 0 mm 2 mps 705 mmHg 69%
    21:00 +18°C° 0 mm 2 mps 705 mmHg 73%
    22:00 +17°C° 0 mm 2 mps 705 mmHg 77%
    23:00 +17°C° 0 mm 2 mps 705 mmHg 81%

    Tomorrow, 17 October, Wednesday

    Time Temperature Precipitation Wind Pressure Humidity
    00:00 +16°C° 0 mm 2 mps 705 mmHg 82%
    01:00 +16°C° 0 mm 1 mps 705 mmHg 84%
    02:00 +15°C° 0 mm 1 mps 705 mmHg 85%
    03:00 +15°C° 0 mm 1 mps 704 mmHg 85%
    04:00 +15°C° 0 mm 1 mps 704 mmHg 86%
    05:00 +15°C° 0 mm 1 mps 704 mmHg 86%
    06:00 +16°C° 0 mm 1 mps 704 mmHg 81%
    07:00 +18°C° 0 mm 1 mps 704 mmHg 75%
    08:00 +19°C° 0 mm 1 mps 704 mmHg 70%
    09:00 +21°C° 0 mm 1 mps 704 mmHg 62%
    10:00 +22°C° 0 mm 1 mps 704 mmHg 53%
    11:00 +24°C° 0 mm 1 mps 705 mmHg 45%
    12:00 +25°C° 0 mm 1 mps 704 mmHg 42%
    13:00 +26°C° 0 mm 1 mps 704 mmHg 39%
    14:00 +27°C° 0 mm 1 mps 704 mmHg 36%
    15:00 +26°C° 0.2 mm 1 mps 703 mmHg 39%
    16:00 +25°C° 0.2 mm 2 mps 703 mmHg 43%
    17:00 +24°C° 0.2 mm 2 mps 703 mmHg 46%
    18:00 +23°C° 0.3 mm 2 mps 703 mmHg 53%
    19:00 +20°C° 0.3 mm 2 mps 703 mmHg 60%
    20:00 +18°C° 0.3 mm 2 mps 703 mmHg 68%
    21:00 +18°C° 0 mm 2 mps 703 mmHg 71%
    22:00 +18°C° 0 mm 1 mps 703 mmHg 74%
    23:00 +18°C° 0 mm 1 mps 703 mmHg 77%

    Day after tomorrow, 18 October, Thursday

    Time Temperature Precipitation Wind Pressure Humidity
    00:00 +18°C° 0 mm 1 mps 703 mmHg 78%
    01:00 +16°C° 0 mm 1 mps 703 mmHg 79%
    02:00 +15°C° 0 mm 0 mps 703 mmHg 81%
    03:00 +15°C° 0 mm 0 mps 703 mmHg 81%
    04:00 +14°C° 0 mm 0 mps 703 mmHg 82%
    05:00 +14°C° 0 mm 0 mps 702 mmHg 82%
    06:00 +15°C° 0 mm 0 mps 703 mmHg 76%
    07:00 +17°C° 0 mm 0 mps 703 mmHg 70%
    08:00 +18°C° 0 mm 0 mps 704 mmHg 64%
    09:00 +19°C° 0 mm 0 mps 704 mmHg 58%
    10:00 +21°C° 0 mm 0 mps 704 mmHg 51%
    11:00 +25°C° 0 mm 1 mps 704 mmHg 45%
    12:00 +25°C° 0 mm 1 mps 704 mmHg 42%
    13:00 +26°C° 0 mm 1 mps 704 mmHg 39%
    14:00 +27°C° 0 mm 1 mps 704 mmHg 36%
    15:00 +26°C° 0 mm 2 mps 704 mmHg 39%
    16:00 +25°C° 0 mm 2 mps 703 mmHg 42%
    17:00 +24°C° 0 mm 2 mps 703 mmHg 45%
    18:00 +23°C° 0 mm 2 mps 704 mmHg 50%
    19:00 +21°C° 0 mm 2 mps 704 mmHg 55%
    20:00 +19°C° 0 mm 2 mps 704 mmHg 60%
    21:00 +19°C° 0 mm 2 mps 704 mmHg 63%
    22:00 +19°C° 0 mm 1 mps 704 mmHg 66%
    23:00 +19°C° 0 mm 1 mps 704 mmHg 69%

    19 October, Friday

    Time Temperature Precipitation Wind Pressure Humidity
    00:00 +18°C° 0 mm 1 mps 704 mmHg 71%
    01:00 +18°C° 0 mm 1 mps 704 mmHg 74%
    02:00 +16°C° 0 mm 1 mps 704 mmHg 76%
    03:00 +16°C° 0 mm 1 mps 704 mmHg 78%
    04:00 +15°C° 0 mm 0 mps 704 mmHg 79%
    05:00 +14°C° 0 mm 0 mps 704 mmHg 81%
    06:00 +15°C° 0 mm 0 mps 704 mmHg 75%
    07:00 +17°C° 0 mm 0 mps 705 mmHg 69%
    08:00 +18°C° 0 mm 0 mps 705 mmHg 63%
    09:00 +21°C° 0 mm 1 mps 705 mmHg 57%
    10:00 +23°C° 0 mm 1 mps 705 mmHg 51%
    11:00 +24°C° 0 mm 1 mps 705 mmHg 45%
    12:00 +25°C° 0 mm 1 mps 705 mmHg 42%
    13:00 +26°C° 0 mm 1 mps 705 mmHg 39%
    14:00 +26°C° 0 mm 2 mps 704 mmHg 37%
    15:00 +25°C° 0 mm 2 mps 704 mmHg 39%
    16:00 +25°C° 0 mm 2 mps 704 mmHg 42%
    17:00 +24°C° 0 mm 2 mps 704 mmHg 44%
    18:00 +23°C° 0 mm 2 mps 705 mmHg 49%
    19:00 +20°C° 0 mm 2 mps 705 mmHg 54%
    20:00 +19°C° 0 mm 2 mps 705 mmHg 58%
    21:00 +19°C° 0 mm 1 mps 705 mmHg 61%
    22:00 +19°C° 0 mm 1 mps 705 mmHg 63%
    23:00 +19°C° 0 mm 1 mps 705 mmHg 65%

    20 October, Saturday

    Time Temperature Precipitation Wind Pressure Humidity
    00:00 +18°C° 0 mm 1 mps 705 mmHg 67%
    01:00 +18°C° 0 mm 1 mps 704 mmHg 69%
    02:00 +16°C° 0 mm 1 mps 704 mmHg 71%
    03:00 +16°C° 0 mm 1 mps 704 mmHg 73%
    04:00 +16°C° 0 mm 1 mps 704 mmHg 75%
    05:00 +14°C° 0 mm 0 mps 704 mmHg 76%
    06:00 +16°C° 0 mm 1 mps 704 mmHg 71%
    07:00 +18°C° 0 mm 1 mps 705 mmHg 67%
    08:00 +20°C° 0 mm 1 mps 705 mmHg 62%
    09:00 +21°C° 0 mm 1 mps 705 mmHg 56%
    10:00 +23°C° 0 mm 1 mps 705 mmHg 50%
    11:00 +24°C° 0 mm 1 mps 705 mmHg 45%
    12:00 +25°C° 0 mm 1 mps 705 mmHg 41%
    13:00 +25°C° 0 mm 2 mps 705 mmHg 38%
    14:00 +26°C° 0 mm 2 mps 704 mmHg 35%
    15:00 +25°C° 0 mm 2 mps 704 mmHg 37%
    16:00 +24°C° 0 mm 2 mps 704 mmHg 40%
    17:00 +23°C° 0 mm 2 mps 704 mmHg 43%
    18:00 +21°C° 0 mm 2 mps 704 mmHg 48%
    19:00 +19°C° 0 mm 2 mps 704 mmHg 53%
    20:00 +18°C° 0 mm 2 mps 704 mmHg 58%
    21:00 +17°C° 0 mm 2 mps 704 mmHg 62%
    22:00 +17°C° 0 mm 2 mps 704 mmHg 66%
    23:00 +16°C° 0 mm 2 mps 704 mmHg 70%

    21 October, Sunday

    Time Temperature Precipitation Wind Pressure Humidity
    00:00 +16°C° 0 mm 2 mps 704 mmHg 73%
    01:00 +15°C° 0 mm 1 mps 704 mmHg 76%
    02:00 +15°C° 0 mm 1 mps 704 mmHg 79%
    03:00 +14°C° 0 mm 1 mps 704 mmHg 81%
    04:00 +14°C° 0 mm 2 mps 703 mmHg 83%
    05:00 +13°C° 0 mm 2 mps 703 mmHg 84%
    06:00 +14°C° 0 mm 2 mps 704 mmHg 80%
    07:00 +15°C° 0 mm 2 mps 704 mmHg 76%
    08:00 +16°C° 0 mm 2 mps 704 mmHg 72%
    09:00 +17°C° 0 mm 2 mps 704 mmHg 63%
    10:00 +19°C° 0 mm 2 mps 705 mmHg 54%
    11:00 +21°C° 0 mm 3 mps 705 mmHg 45%
    12:00 +21°C° 0 mm 3 mps 704 mmHg 42%
    13:00 +22°C° 0 mm 3 mps 704 mmHg 38%
    14:00 +24°C° 0 mm 3 mps 704 mmHg 34%
    15:00 +22°C° 0 mm 3 mps 704 mmHg 37%
    16:00 +21°C° 0 mm 3 mps 704 mmHg 39%
    17:00 +20°C° 0 mm 3 mps 703 mmHg 42%
    18:00 +19°C° 0 mm 3 mps 704 mmHg 48%
    19:00 +17°C° 0 mm 3 mps 704 mmHg 55%
    20:00 +16°C° 0 mm 3 mps 704 mmHg 62%
    21:00 +14°C° 0 mm 3 mps 704 mmHg 65%
    22:00 +13°C° 0 mm 3 mps 704 mmHg 69%
    23:00 +14°C° 0 mm 2 mps 704 mmHg 73%
    Show more